Regional Weather Roundup
Issued by NWS

Home | Current Version | Previous Version | Graphics & Text | Print | Product List | Glossary On
Versions: 1 2 3 4 5 6 7 8 9 10 11 12 13 14 15 16 17 18 19 20 21 22 23 24 25 26 27 28 29 30 31 32 33 34 35 36 37 38 39 40 41 42 43 44 45 46 47 48 49 50
225
ASUS43 KDTX 211110
RWRMI
MICHIGAN HOURLY REGIONAL WEATHER ROUNDUP
NATIONAL WEATHER SERVICE DETROIT/PONTIAC MI
ISSUED BY NATIONAL WEATHER SERVICE GRAND RAPIDS MI
700 AM EDT MON MAY 21 2018

NOTE: "FAIR" INDICATES FEW OR NO CLOUDS BELOW 12,000 FEET WITH NO
SIGNIFICANT WEATHER AND/OR OBSTRUCTION TO VISIBILITY.

MIZ047>049-052>055-059>063-066>070-074>076-081>083-211200-
SOUTHEAST LOWER MICHIGAN

CITY           SKY/WX    TMP DP  RH WIND       PRES   REMARKS
ADRIAN         CLOUDY    53  48  83 E6        30.23R
ALMA             N/A     45  45 100 N6        30.22F FOG
ANN ARBOR      FAIR      50  46  86 NE5       30.22R
BAD AXE        FOG       33  33 100 CALM      30.26R VSB<1/4
DETROIT CITY   FAIR      48  40  73 CALM      30.24R
DETROIT        CLOUDY    51  42  71 NE6       30.23R
FLINT          FAIR      45  45 100 E5        30.23R
GROSSE ILE     FAIR      50  46  86 CALM      30.23R
HILLSDALE      CLOUDY    54  52  94 E8        30.20R FOG
HOWELL         FAIR      47  47  99 CALM      30.22R FOG

CITY           SKY/WX    TMP DP  RH WIND       PRES   REMARKS
JACKSON        FAIR      54  52  93 E6        30.22R FOG
LANSING        FAIR      48  48 100 CALM      30.22R FOG
MASON          FAIR      50  49  95 CALM      30.23R FOG
MONROE         FAIR      49  47  92 E3        30.22R
MT. CLEMENS    FAIR      45  45 100 NE6         N/A
PONTIAC        CLOUDY    48  47  96 CALM      30.21S
PORT HOPE        N/A     40  40 100 CALM      30.23S
PORT HURON     FAIR      37  36  93 CALM      30.24S
TRI CITIES     FOG       47  47 100 NE7       30.24S VSB<1/4
YPSILANTI      FAIR      52  46  80 CALM      30.23R
$$
MIZ043>046-050>051-056>058-064>065-071>073-077>080-211200-
SOUTHWEST LOWER MICHIGAN

CITY           SKY/WX    TMP DP  RH WIND       PRES   REMARKS
BATTLE CREEK   FAIR      57  54  89 E6        30.20R
BENTON HARBOR  CLOUDY    57  54  89 E6        30.15S FOG
BIG RAPIDS     FOG       44  44  98 CALM      30.21F VSB<1/4
COLDWATER      CLOUDY    56  55  97 E10       30.19R FOG
HOLLAND        FAIR      54  51  90 E8        30.18S FOG
GRAND RAPIDS   CLOUDY    51  50  96 E8        30.20R FOG
KALAMAZOO      CLOUDY    57  55  93 E3        30.20R FOG
MARSHALL       FAIR      55  54  95 E3        30.20S
MOUNT PLEASANT FOG       45  45 100 CALM      30.22F VSB 1/4
MUSKEGON       MOCLDY    51  48  89 E5        30.20R
STURGIS        CLOUDY    57  55  95 E6        30.18R FOG
$$
MIZ016>042-211200-
NORTHERN LOWER MICHIGAN

CITY           SKY/WX    TMP DP  RH WIND       PRES   REMARKS
ALPENA         FAIR      41  39  93 CALM      30.26R
BEAVER ISLAND  FAIR      36  33  88 CALM      30.25R
BELLAIRE       FAIR      36  35  96 CALM      30.25R
CADILLAC       FAIR      37  36  97 CALM      30.22S
CHARLEVOIX     FAIR      43  40  88 SE5       30.27R
GAYLORD        FAIR      39  36  89 CALM      30.25R
HOUGHTON LAKE  FOG       41  39  93 E3        30.24S VSB<1/4
MANISTEE       FAIR      45  44  97 E8        30.21F
PELLSTON       FAIR      35  34  96 CALM      30.26R
TRAVERSE CITY  MOCLDY    40  38  93 CALM      30.23R
LUDINGTON      FAIR      46  46 100 E3        30.19F
$$
MIZ007>008-015-211200-
EASTERN UPPER MICHIGAN

CITY           SKY/WX    TMP DP  RH WIND       PRES   REMARKS
KINROSS        FAIR      43  34  70 CALM      30.24R
MACKINAC ISLAN FAIR      46  39  76 W6        30.25R
NEWBERRY       FAIR      42  36  81 SW3       30.23R
S. S. MARIE    FAIR      42  35  76 CALM      30.23S
$$
MIZ004>006-011>014-085-211200-
CENTRAL UPPER MICHIGAN

CITY           SKY/WX    TMP DP  RH WIND       PRES   REMARKS
MANISTIQUE     FAIR      34  33  94 CALM      30.24R
ESCANABA       FAIR      34  32  92 CALM      30.24R
SAWYER-GWINN   CLEAR     37  30  75 CALM      30.24R
$$
MIZ001>003-009>011-084-211200-
WESTERN UPPER MICHIGAN

CITY           SKY/WX    TMP DP  RH WIND       PRES   REMARKS
IRON MOUNTAIN  FAIR      35  32  88 N3        30.22S
HOUGHTON       FAIR      47  33  58 W5        30.19R
COPPER HARBOR    N/A     47  34  60 SW7       30.18R
IRONWOOD       FAIR      49  31  49 CALM      30.20S
$$

ABBREVIATIONS USED IN REMARKS
   TC - TEMPERATURE IN CELSIUS
  WCI - WIND CHILL INDEX
   HX - HEAT INDEX
  VSB - VISIBILITY





USA.gov is the U.S. government's official web portal to all federal, state and local government web resources and services.